Location: Gerlach
(40.6516°N, 119.3568°W)
Time: 20:21:50
(UTC-07:00)

Courier 1B Rocket - Visible Passes

Search period start: 22 September 2023 00:00
Search period end: 02 October 2023 00:00
Orbit: 920 x 1202 km, 28.2° (Epoch: 22 September)

Date Brightness Start Highest point End Pass type
(mag) Time Alt. Az. Time Alt. Az. Time Alt. Az.
22 Sep 6.5 19:31:00 10° SW 19:37:25 29° S 19:43:26 11° ESE visible
22 Sep 6.3 21:23:52 10° WSW 21:29:48 30° SSW 21:29:48 30° SSW visible
23 Sep 6.3 20:22:37 10° WSW 20:29:16 32° S 20:32:23 23° SE visible
23 Sep 7.1 22:16:15 10° WSW 22:18:44 18° SW 22:18:44 18° SW visible
24 Sep 6.5 19:21:30 10° SW 19:28:10 31° S 19:34:39 10° ESE visible
24 Sep 6.4 21:14:44 10° WSW 21:21:04 28° S 21:21:19 28° S visible
25 Sep 6.4 20:13:22 10° WSW 20:20:01 31° S 20:23:53 20° SE visible
25 Sep 7.2 22:07:27 10° WSW 22:10:15 17° SW 22:10:15 17° SW visible
26 Sep 6.5 19:12:10 10° WSW 19:18:54 32° S 19:25:32 10° ESE visible
26 Sep 6.6 21:05:44 10° WSW 21:11:47 25° SSW 21:12:51 24° S visible
27 Sep 6.6 20:04:16 10° WSW 20:10:45 29° S 20:15:28 16° SE visible
27 Sep 7.3 21:59:00 10° WSW 22:01:49 15° SW 22:01:49 15° SW visible
28 Sep 6.6 19:02:58 10° WSW 19:09:39 32° S 19:16:17 10° SE visible
28 Sep 6.9 20:56:57 10° WSW 21:02:29 21° SSW 21:04:27 19° S visible
29 Sep 6.8 19:55:18 10° WSW 20:01:27 26° SSW 20:07:08 11° SE visible
29 Sep 7.5 21:51:27 10° SW 21:53:30 12° SSW 21:53:30 12° SSW visible
30 Sep 6.8 18:53:53 10° WSW 19:00:23 29° S 19:06:51 10° SE visible
30 Sep 7.2 20:48:32 10° WSW 20:53:07 17° SSW 20:56:14 13° S visible
01 Oct 7.1 19:46:34 10° WSW 19:52:08 21° SSW 19:57:40 10° SSE visible
